Temp
20 20 20 20 20 20 20 20 20 20 21 21 21 21 21 21 21 21 21 21 21 21 20 20 20 20 20 20 19 19 19 19 19 19 18 19 19 19 19 19 19 19 19 19 19 19 19 19 19 19 19 19 19 18 18 18 18 18 18 18 18 17 17 17 17 17 17 17 17 17 17 17 17 17 16 16 16 16 16 16 16 17 17 16 16
20 20 20 20 20 20 20 20 20 20 20 21 21 21 21 21 21 21 21 21 21 21 21 20 20 20 20 19 19 19 19 19 19 19 19 19 19 19 19 19 19 19 19 19 19 19 19 19 19 19 19 18 18 18 18 18 17 17 17 17 17 17 17 17 17 17 17 17 17 17 17 17 17 17 16 16 16 16 16 16 17 17 17 16 16
20 20 21 20 20 20 20 20 20 20 20 21 21 21 21 21 21 21 21 21 21 20 20 20 20 20 19 19 19 19 19 19 19 19 19 19 19 19 19 19 20 20 20 19 19 19 19 19 19 19 18 18 18 18 18 18 17 17 17 17 17 17 17 17 17 17 17 17 17 17 16 16 17 17 16 16 15 15 16 15 16 16 16 16 16
20 20 20 20 20 20 20 20 20 20 20 20 21 21 21 21 21 20 21 21 20 20 20 20 20 20 19 19 19 19 19 19 19 19 19 19 19 19 19 19 20 20 20 19 19 18 19 19 18 18 18 18 18 18 18 18 17 17 17 17 17 17 17 17 17 17 17 17 16 17 17 16 16 16 16 16 15 15 16 15 15 16 15 15 16
20 20 20 20 20 20 20 20 20 20 20 20 21 21 21 21 21 21 21 21 21 20 20 20 20 20 20 20 20 20 20 20 20 19 19 19 19 19 19 19 20 20 20 19 18 18 18 18 18 18 18 18 18 18 18 17 17 17 17 17 17 17 17 17 17 17 17 16 16 17 17 17 16 16 16 16 15 15 16 15 15 15 15 15 16
20 19 20 20 20 20 20 19 20 20 20 20 20 21 21 21 21 21 21 21 21 20 20 20 20 20 20 20 20 20 20 20 19 19 19 19 19 19 19 19 20 20 20 19 18 18 18 18 18 18 18 18 18 18 17 17 17 17 17 17 17 17 17 17 17 17 16 16 16 17 17 17 17 16 16 16 15 15 15 15 15 15 15 15 16
21 19 20 20 20 19 19 19 20 20 20 20 20 20 21 21 21 21 21 20 20 20 20 20 20 20 20 20 20 20 20 20 20 19 19 19 19 19 19 19 19 19 19 19 18 18 18 18 18 18 18 18 17 17 17 17 17 17 17 17 17 17 17 17 17 17 16 16 17 17 17 17 17 16 16 16 15 15 15 15 15 15 15 15 16
21 20 19 20 20 20 19 19 19 20 20 20 20 20 21 21 21 21 20 20 20 20 20 20 20 20 20 20 20 20 20 20 20 20 19 19 19 19 19 18 18 19 18 18 18 18 18 18 18 18 18 17 17 17 17 17 17 17 17 17 17 17 17 17 17 17 16 16 17 17 17 17 17 16 16 16 16 15 15 15 15 15 15 15 16
20 19 19 20 20 20 19 19 19 19 20 20 20 20 20 21 21 21 20 20 20 20 20 20 20 20 20 20 19 19 19 19 20 20 19 19 19 18 19 18 18 18 18 18 18 18 18 18 18 18 17 17 17 17 17 17 17 17 17 17 17 17 16 16 17 17 16 16 17 17 17 17 17 17 16 16 15 15 15 15 15 15 15 15 15
19 19 19 19 20 20 20 19 19 19 19 19 20 20 20 20 20 20 20 20 20 20 20 20 20 20 20 20 20 19 19 19 19 19 19 19 18 18 19 18 18 18 18 18 17 17 18 18 18 18 18 17 17 17 17 17 17 17 16 17 16 16 16 16 17 17 17 17 17 17 17 17 17 17 16 15 15 15 15 15 15 15 15 15 15
18 18 19 19 20 20 20 19 19 19 19 19 19 19 20 20 20 20 20 20 20 20 20 20 20 20 20 20 20 20 19 19 19 19 19 19 18 19 19 18 18 18 18 18 17 18 18 18 18 18 18 17 17 17 17 17 17 16 17 17 17 16 16 16 17 16 17 17 17 17 16 17 17 16 16 15 15 15 15 15 15 15 15 15 15
18 19 19 19 20 21 20 19 19 19 20 19 19 19 19 20 20 20 20 20 20 20 20 20 20 19 19 19 19 19 19 19 19 19 19 19 18 19 19 18 18 18 18 18 18 18 17 18 18 18 18 17 17 17 17 17 17 17 17 17 17 17 16 16 16 16 17 17 17 17 17 17 17 16 15 15 15 15 15 15 15 15 15 15 15
18 18 19 19 21 21 20 20 19 20 20 19 19 19 19 19 19 20 20 20 20 20 20 20 20 19 19 19 19 19 19 19 19 19 19 19 18 19 19 18 18 18 18 18 18 18 18 18 17 17 17 17 17 17 17 17 17 17 17 16 17 17 17 17 16 16 16 17 17 17 17 17 16 16 15 15 15 15 15 15 15 15 14 14 15
18 18 19 19 20 20 20 20 19 19 20 19 19 19 19 19 19 19 20 20 20 20 20 20 19 19 19 19 19 19 19 19 19 19 19 18 18 18 19 18 18 18 18 18 18 18 18 17 17 17 17 17 17 17 17 17 17 17 17 17 17 17 17 17 17 16 16 16 16 17 17 17 16 16 16 15 15 15 15 15 15 14 14 14 14
19 18 19 19 19 19 20 20 19 20 20 20 19 19 19 19 19 19 19 20 20 20 19 20 19 19 19 19 19 19 19 19 19 18 18 18 18 18 19 19 18 18 18 18 18 18 18 17 17 17 17 17 18 17 17 17 17 17 17 17 17 17 17 17 16 17 16 16 16 16 17 16 16 16 16 16 15 15 15 14 14 14 14 14 14
19 18 19 19 19 19 19 20 20 19 19 20 19 19 19 19 19 19 19 19 19 19 19 19 19 19 19 19 19 19 19 19 19 18 18 18 18 18 19 19 18 18 18 18 18 18 17 17 17 17 17 18 17 17 17 17 17 17 17 17 17 17 17 17 16 17 16 16 16 16 17 16 16 16 16 15 15 15 15 14 14 14 14 14 14
18 18 18 19 19 19 19 19 19 19 19 19 19 19 19 19 19 19 19 19 19 19 19 19 19 19 19 19 19 19 19 19 19 19 18 18 18 18 19 19 19 18 18 18 18 18 18 18 18 17 17 17 17 17 17 17 18 18 18 17 17 17 17 17 16 17 17 16 16 16 17 16 16 16 16 15 15 15 15 14 14 14 14 14 14
18 18 18 18 18 19 19 19 19 19 19 18 19 19 19 19 19 19 19 19 18 19 19 19 19 19 19 19 19 19 19 19 19 19 18 18 18 18 18 19 19 18 18 18 18 18 18 18 18 18 18 17 17 18 18 18 18 18 18 18 18 17 17 17 16 16 16 16 16 16 16 16 16 16 16 16 16 15 15 14 14 14 14 14 14
18 18 18 19 19 20 19 19 19 19 19 18 18 18 19 19 19 19 18 18 18 18 19 19 19 19 19 18 19 19 19 18 18 19 18 18 18 18 18 18 19 19 18 18 18 18 18 18 18 18 18 18 17 18 18 18 18 18 18 18 18 18 18 17 16 16 16 16 16 16 16 16 16 16 16 15 16 15 14 14 14 14 14 14 14
18 18 18 19 19 20 20 19 19 18 19 19 19 18 18 18 18 19 18 18 18 18 18 18 18 19 19 18 19 19 19 18 18 18 18 18 18 18 18 18 18 19 18 18 18 18 17 17 17 18 18 18 18 17 18 18 18 18 18 18 18 18 18 17 17 16 16 16 16 16 16 16 16 16 15 15 15 15 15 14 14 14 14 14 14
18 17 18 19 19 20 20 19 19 19 18 18 19 18 18 18 18 18 18 18 18 18 18 18 18 18 19 18 18 18 18 18 18 18 18 18 18 18 18 18 18 18 18 18 18 18 17 17 17 17 17 17 18 17 17 17 18 18 18 18 18 18 18 18 17 17 16 16 16 16 16 16 16 16 15 15 15 15 15 14 14 14 14 14 14
18 17 18 19 19 19 19 19 19 19 18 18 18 18 18 18 18 18 18 18 18 18 18 18 18 18 18 18 18 18 18 18 18 18 18 18 18 18 18 18 18 18 18 18 18 18 17 17 17 17 17 17 18 17 17 17 17 18 18 18 18 19 18 18 18 17 17 16 16 16 16 16 16 16 15 15 15 15 14 14 14 14 14 14 14
17 17 18 19 19 19 19 19 19 19 18 17 18 18 18 18 18 18 18 18 18 18 18 18 18 18 18 18 18 18 18 18 18 18 18 18 18 18 18 18 18 18 18 18 18 17 17 17 17 16 17 17 17 17 17 17 17 18 18 18 19 19 19 18 18 17 17 17 16 16 16 16 16 16 15 15 15 15 14 14 14 14 14 14 14
17 17 18 19 19 19 18 18 19 19 18 17 17 17 18 18 18 18 17 17 17 18 18 17 17 18 18 18 18 18 18 18 18 18 18 18 18 18 17 17 17 17 18 18 18 17 17 17 16 16 16 17 17 17 17 17 17 18 18 18 19 19 19 18 18 17 17 17 17 17 16 16 16 16 15 15 15 15 14 14 14 14 14 14 13
17 17 18 19 18 18 18 18 18 18 19 18 18 17 17 18 18 18 17 17 17 18 18 18 17 17 17 17 18 18 18 18 18 17 18 18 17 17 17 17 17 17 17 17 17 17 17 17 16 16 16 16 17 17 17 17 17 17 18 18 19 19 19 18 18 17 17 17 17 17 17 16 16 16 15 15 15 15 15 14 14 14 14 14 14
17 17 18 18 18 18 18 18 18 18 18 18 18 18 18 17 17 17 17 17 17 18 18 17 17 17 17 18 18 18 18 18 17 17 17 17 17 17 17 17 16 17 17 17 17 17 17 17 16 16 16 16 16 17 17 17 16 17 18 18 18 19 18 18 18 18 17 17 17 17 17 16 16 16 16 15 15 15 15 14 14 14 14 14 14
16 17 17 18 18 18 18 18 18 18 18 18 18 18 18 18 17 17 17 17 17 17 18 17 17 17 18 18 18 18 18 17 17 17 17 17 16 17 17 17 16 17 17 17 17 17 17 17 17 16 16 16 16 16 17 16 16 16 17 18 18 18 18 18 18 18 18 17 17 17 17 17 16 16 16 15 15 15 15 14 14 14 14 14 14
16 17 17 18 18 18 18 18 18 18 18 18 18 18 18 18 18 17 17 17 17 17 18 18 18 18 18 18 18 18 18 18 17 17 17 17 17 17 17 17 17 17 17 17 17 17 17 17 17 16 16 16 16 16 16 16 16 16 17 17 18 18 18 18 18 18 18 17 17 17 17 17 16 16 16 15 15 15 15 15 14 14 14 14 13
17 18 19 19 19 18 18 18 18 18 18 18 18 18 17 17 17 17 17 17 18 17 18 18 18 18 18 18 18 18 18 18 18 17 17 17 17 17 17 17 17 17 17 17 17 17 17 17 17 16 16 16 16 16 16 17 16 16 17 17 17 18 18 18 18 18 18 18 17 17 17 17 17 16 16 15 15 15 15 15 15 14 14 14 14
18 19 19 19 19 19 18 18 18 18 18 18 18 18 17 17 17 17 17 17 17 17 18 18 18 18 18 18 18 18 18 17 18 17 17 17 17 17 16 16 16 16 16 17 17 17 17 17 17 16 16 16 16 16 16 16 16 17 16 17 17 17 17 18 18 18 18 18 17 17 17 17 17 17 16 16 15 15 15 15 15 15 14 14 14
19 19 19 19 19 19 19 19 19 19 19 18 18 18 17 17 17 17 17 17 17 17 17 17 18 18 17 17 18 18 18 17 18 17 16 16 16 16 16 16 16 16 17 17 17 17 17 17 16 16 16 16 16 16 16 16 17 17 17 17 17 17 17 18 18 18 18 18 18 17 17 17 17 17 16 16 16 15 15 15 15 15 15 14 14
19 19 19 19 19 18 19 19 19 19 19 19 19 18 17 17 17 17 17 17 16 17 17 17 17 17 17 17 17 17 17 17 17 17 16 16 17 16 16 16 16 16 17 17 17 17 17 16 16 16 16 16 16 16 17 17 17 17 17 17 17 17 17 17 17 18 18 18 18 18 17 17 17 17 17 16 16 16 15 15 15 15 15 15 14
19 19 19 19 18 18 18 18 19 19 18 18 18 18 17 17 17 17 17 17 16 16 16 16 17 17 17 17 17 17 16 16 16 16 16 15 17 17 16 17 17 16 17 17 17 17 17 17 16 17 17 17 17 17 17 17 17 17 17 17 17 17 17 17 17 17 18 18 18 18 18 17 17 17 17 17 16 16 16 16 15 15 15 15 15
19 19 19 18 18 18 18 18 19 18 18 18 18 18 17 18 18 17 17 16 16 16 16 16 17 17 16 16 16 16 16 16 16 16 16 15 16 17 16 16 16 16 16 17 17 16 17 17 17 17 17 17 17 17 17 16 16 17 17 17 17 17 17 17 17 17 18 18 18 18 18 18 17 17 17 17 17 17 16 16 16 15 15 15 15
19 19 19 18 18 18 18 18 18 18 17 18 18 18 18 18 18 17 17 16 16 15 16 16 16 16 15 15 16 16 16 16 15 16 16 15 16 16 16 16 16 16 16 16 16 16 16 17 17 17 17 17 17 17 17 16 16 16 17 17 17 18 18 18 18 18 18 18 18 18 18 18 18 17 17 17 17 17 17 16 16 16 15 15 15
19 19 19 18 18 18 18 18 18 18 17 18 17 18 18 17 17 17 17 17 16 16 16 16 16 16 15 15 16 16 16 16 15 15 16 16 16 16 16 16 16 16 16 16 16 16 16 17 17 17 17 17 17 16 16 16 16 17 17 17 18 18 18 18 18 18 18 18 18 18 18 18 18 18 18 17 17 17 17 17 17 16 16 16 15
19 19 19 18 18 18 18 18 18 17 17 18 17 17 17 17 17 17 17 17 17 16 16 16 16 16 15 15 16 16 16 16 16 16 16 16 15 16 16 16 16 15 15 15 15 15 16 16 16 16 16 17 16 16 16 16 16 17 17 17 18 18 18 18 18 18 18 18 18 18 18 18 18 18 18 18 17 17 17 17 17 17 16 16 16
19 19 18 18 18 18 18 18 18 17 17 17 17 17 17 17 17 16 17 17 17 16 16 16 16 16 15 15 15 16 16 16 16 16 16 16 15 16 16 15 15 15 15 15 15 16 16 16 16 16 16 16 16 16 16 16 16 16 17 17 17 18 18 18 18 18 18 18 18 18 18 18 18 18 18 18 18 17 17 17 17 17 17 17 17
18 18 18 18 18 18 18 18 17 17 17 17 17 17 17 17 17 16 17 16 16 16 16 16 16 16 15 15 15 15 15 15 15 15 16 16 15 15 15 15 15 15 15 15 15 15 15 15 15 15 16 15 15 16 16 16 16 16 17 16 16 17 18 18 19 19 19 18 18 18 18 18 18 18 18 18 18 18 18 17 17 17 17 17 17
17 18 18 18 18 18 18 17 17 17 17 17 17 17 17 17 17 16 16 16 16 16 16 16 15 15 15 15 15 15 15 15 15 15 15 15 15 15 15 15 15 15 15 15 15 15 14 14 15 15 15 15 15 15 15 16 16 16 16 16 16 17 18 18 19 19 19 19 18 18 18 18 18 18 18 18 18 18 18 18 17 17 17 17 17
16 17 17 17 18 18 18 17 17 17 17 17 17 17 17 17 16 16 16 16 15 15 15 15 15 15 15 15 14 14 14 15 15 15 15 15 15 15 14 15 15 15 15 15 15 15 15 15 15 15 15 14 14 15 15 16 16 16 16 17 17 17 18 18 18 19 19 19 19 19 18 18 18 18 18 18 18 18 18 18 18 18 17 17 17
16 17 17 17 18 18 18 17 17 17 17 17 17 17 17 17 16 16 16 16 15 15 15 15 15 14 14 14 14 14 14 14 14 14 14 14 15 14 14 14 15 14 15 15 15 15 16 15 15 14 15 14 14 15 15 15 15 15 16 16 17 18 18 18 18 18 19 19 19 19 19 19 18 18 18 18 18 18 18 18 18 18 18 17 17
16 16 17 17 17 17 17 17 17 17 17 17 17 17 17 17 17 17 16 16 15 15 15 15 15 14 14 14 14 14 14 14 14 14 14 14 14 14 14 14 14 14 15 14 14 15 15 15 15 15 15 15 15 15 15 16 15 15 15 16 16 17 18 18 18 18 18 18 19 19 19 19 19 18 18 18 18 18 18 18 18 18 18 18 17
16 16 16 17 17 17 17 17 17 17 17 17 17 17 17 17 17 17 16 16 15 15 15 15 15 14 14 14 14 14 13 13 13 14 14 14 14 14 14 14 14 15 14 14 14 14 14 14 15 15 15 15 15 15 15 15 15 15 15 15 15 16 17 17 17 18 18 18 18 18 18 18 18 18 18 18 18 18 18 18 18 18 18 18 18
15 16 16 17 17 18 18 17 17 17 17 17 17 17 17 17 17 16 16 16 15 15 15 15 14 14 14 14 13 13 13 13 13 13 14 14 14 14 14 14 14 15 15 14 14 14 14 14 14 15 15 15 15 15 15 15 15 15 15 15 15 16 16 16 16 17 18 17 18 17 17 17 17 17 17 17 17 17 18 18 18 18 18 18 18
15 16 16 17 17 18 18 17 17 17 17 17 17 18 17 17 17 17 16 15 15 15 15 15 15 14 14 14 13 13 13 13 13 13 13 13 13 14 14 14 14 14 14 14 14 14 14 13 13 14 14 14 15 15 15 15 15 15 15 15 15 15 16 16 16 17 17 17 17 17 17 17 17 17 17 17 17 17 17 17 17 17 18 18 18
15 16 16 16 17 18 17 17 17 17 17 17 18 18 18 18 18 17 17 16 16 16 16 16 15 14 14 14 13 13 13 13 13 13 13 13 13 13 14 14 14 14 14 14 14 14 13 13 13 13 13 14 14 15 14 14 15 14 14 14 14 14 15 15 16 16 17 17 17 17 17 17 17 17 17 17 17 17 16 16 16 17 17 17 17
15 16 16 16 17 18 17 17 17 17 17 17 18 18 18 18 18 17 17 17 17 17 16 15 15 15 14 14 13 13 13 13 13 13 13 13 13 13 13 13 13 13 14 13 13 13 13 13 13 13 13 13 13 14 14 14 14 14 14 14 14 14 14 14 15 15 16 17 17 18 17 17 16 16 16 17 17 16 16 16 17 16 17 17 17
15 15 16 16 17 18 18 17 17 17 17 17 18 18 18 18 18 18 17 17 17 17 16 15 15 15 14 14 13 13 13 13 13 13 13 13 13 13 13 13 13 13 13 13 13 13 13 13 13 13 13 12 12 12 12 13 13 13 13 14 14 14 15 15 14 15 15 16 16 17 17 17 16 16 16 16 16 16 16 16 17 17 17 17 17
15 15 16 16 17 18 18 17 17 17 17 17 18 18 18 18 18 18 17 17 17 16 16 15 15 14 14 14 14 13 13 13 13 13 13 13 13 13 13 13 13 13 13 13 13 13 13 12 12 12 12 12 11 11 11 12 12 12 12 13 13 14 15 15 14 15 15 15 16 16 17 17 17 16 16 15 16 16 16 16 16 17 17 17 17
15 15 15 16 17 17 17 16 17 17 17 17 17 18 18 18 18 18 18 17 17 17 16 15 14 14 14 14 14 13 13 13 13 13 13 13 13 13 13 13 13 13 13 12 12 12 12 12 12 11 11 11 11 11 11 11 11 11 11 12 12 13 13 14 13 13 14 15 15 16 17 17 17 16 16 16 15 16 16 16 16 16 16 17 16
Height
790 791 793 795 797 798 800 801 803 803 804 805 806 807 808 809 810 811 812 813 813 814 815 816 817 818 819 820 821 821 822 822 823 823 823 824 824 824 825 826 826 827 828 828 829 829 830 830 831 831 831 832 832 832 833 833 832 832 832 833 833 833 833 833 834 833 833 833 832 832 832 832 832 833 833 834 834 835 836 836 837 838 838 838 838
789 791 793 795 797 798 800 801 803 803 804 805 806 808 808 809 810 811 812 814 814 815 816 817 818 819 820 820 822 822 823 823 824 824 824 825 826 826 826 827 827 828 828 829 830 830 830 830 831 831 832 832 833 833 833 834 834 834 834 834 834 834 834 835 835 835 835 834 834 834 833 833 833 833 834 834 835 836 836 837 838 839 839 839 839
788 791 793 795 797 798 800 802 803 803 805 806 807 808 809 810 811 812 813 814 815 816 817 817 818 819 820 821 822 822 823 823 824 825 825 826 826 827 827 828 828 828 829 830 830 831 831 831 832 831 832 833 833 834 834 835 835 835 835 835 835 835 835 836 836 836 836 836 835 835 835 835 835 835 835 835 836 836 837 838 838 839 839 840 840
789 791 794 796 797 799 800 802 803 804 806 807 808 809 809 810 811 812 813 814 815 816 817 818 819 820 820 821 822 822 823 823 824 825 826 826 827 828 828 828 828 829 829 830 831 832 832 833 833 832 833 833 834 834 835 836 836 836 836 836 836 837 836 837 837 837 837 837 836 836 837 837 836 836 836 836 837 837 838 838 839 839 839 840 840
790 792 794 796 798 799 800 802 803 804 806 807 808 809 810 811 812 812 813 814 815 816 817 818 819 820 821 822 823 823 823 824 824 825 826 827 827 828 829 829 829 829 829 830 831 832 833 833 834 834 834 834 835 835 836 836 837 837 837 837 837 838 837 838 838 838 838 837 838 838 838 838 838 838 838 838 838 838 839 839 839 840 840 841 841
790 793 795 796 798 800 801 803 804 805 807 808 809 810 810 811 812 813 814 814 816 817 817 819 820 821 822 823 823 824 824 825 825 825 826 827 827 828 829 829 829 830 830 830 831 832 833 834 835 835 835 835 835 836 836 837 837 838 838 838 838 838 838 838 838 838 838 838 839 839 840 840 839 839 839 839 839 839 840 840 840 841 841 841 842
790 794 795 797 799 800 802 803 805 805 807 809 810 811 811 812 812 813 814 815 816 817 818 819 820 821 822 823 824 825 825 825 826 826 827 827 827 828 829 830 830 830 830 830 831 833 834 834 835 835 836 836 836 836 837 837 838 838 839 839 839 839 839 839 839 839 839 840 840 840 841 840 840 840 840 840 840 840 841 841 841 842 842 842 843
792 794 796 798 799 801 802 804 805 806 808 810 811 811 812 812 813 814 815 816 817 818 819 820 821 822 823 824 825 825 826 826 826 827 828 828 828 829 829 830 830 831 831 831 832 833 834 835 835 836 836 837 837 837 837 838 838 839 839 839 840 839 840 840 840 840 840 841 841 841 841 841 841 841 841 841 841 841 842 842 842 843 843 843 843
793 795 796 798 800 801 802 804 806 808 810 810 811 812 812 813 813 815 815 816 817 818 819 820 822 822 823 824 825 826 826 827 827 828 828 829 829 829 829 830 830 831 831 832 832 833 834 835 836 836 837 837 837 838 838 838 839 839 840 840 840 840 840 840 841 841 841 842 842 842 842 842 842 842 842 842 842 842 842 843 843 844 844 844 844
794 795 797 799 800 801 803 804 806 809 810 810 812 812 813 814 814 815 816 817 818 819 819 821 822 823 824 825 825 826 827 827 828 828 829 829 830 830 830 830 830 831 831 832 833 834 834 835 836 836 837 838 838 838 838 839 839 840 840 841 841 841 841 841 841 842 842 843 843 843 843 843 843 843 843 842 842 842 843 843 844 845 845 845 845
794 796 797 799 800 801 803 804 806 808 809 810 812 813 814 814 815 816 817 818 818 819 820 821 822 823 824 825 826 826 827 828 828 829 829 830 830 830 831 831 831 831 831 832 833 834 835 835 836 836 837 838 839 839 839 839 840 840 841 841 842 842 842 842 842 843 843 844 844 844 844 844 844 844 843 843 843 843 844 844 844 845 846 846 846
795 797 798 799 800 802 803 805 806 808 809 810 811 812 814 815 815 816 817 818 819 819 820 821 822 824 825 825 826 827 828 828 828 829 829 830 830 831 831 831 831 831 831 832 833 834 835 835 836 837 837 838 839 839 840 840 840 841 841 842 842 842 843 843 843 844 844 845 845 845 845 845 845 844 844 844 844 844 845 845 845 846 846 846 847
795 797 798 799 800 802 804 805 807 808 809 810 811 812 813 814 815 817 818 818 819 820 820 821 822 824 825 826 826 827 828 828 829 829 830 830 831 831 832 832 832 832 832 832 833 834 835 835 836 836 837 839 839 840 840 841 841 842 842 842 843 843 843 844 844 845 845 846 846 846 846 846 846 845 845 845 845 845 845 846 846 847 847 847 847
796 797 798 800 801 802 804 806 807 807 809 810 811 812 813 814 815 817 818 818 819 820 820 821 823 824 825 826 827 827 828 828 829 829 830 830 831 831 832 832 833 833 833 833 833 834 835 835 836 836 838 839 839 840 841 841 842 842 843 843 843 844 844 845 845 846 846 846 846 847 847 847 847 846 846 847 847 846 846 847 847 848 848 848 848
796 797 799 800 802 803 804 806 807 807 809 810 811 812 813 814 815 816 818 819 819 820 821 822 823 824 825 826 826 827 828 828 829 829 830 830 831 831 832 833 833 833 834 834 834 834 835 836 836 837 838 839 840 841 841 842 842 843 843 843 844 844 845 845 846 846 846 847 847 848 848 848 847 847 847 847 847 847 847 847 848 849 849 849 849
797 798 800 801 802 804 805 806 807 808 809 810 811 812 813 814 815 816 818 819 819 820 821 822 823 824 825 825 826 827 827 828 828 829 830 830 831 831 832 833 834 834 834 835 835 835 836 836 837 837 838 839 840 841 841 842 842 843 843 843 844 844 845 846 847 847 847 847 847 848 848 848 847 848 848 848 848 848 848 848 849 849 850 850 850
798 800 801 802 803 804 805 806 807 808 810 811 812 813 814 814 815 816 818 818 819 821 822 822 822 823 824 825 826 826 827 827 828 829 829 830 831 831 832 833 834 834 835 835 836 836 836 837 838 838 839 839 840 841 842 842 843 844 844 844 844 845 846 846 847 848 848 848 848 848 849 849 848 848 848 848 848 848 848 849 849 850 850 851 851
800 801 802 802 803 804 805 806 808 809 810 811 812 813 813 814 815 816 817 818 820 822 822 822 822 823 824 826 826 826 827 827 827 828 829 830 830 831 832 833 834 835 835 836 836 837 837 838 838 838 839 840 841 841 842 843 843 844 844 844 845 845 846 847 847 848 848 848 848 849 849 849 848 849 849 848 848 849 849 849 850 850 850 851 851
801 802 802 803 803 804 805 806 808 809 810 811 812 813 813 814 815 816 817 818 820 821 823 823 822 823 824 826 826 826 827 827 827 828 829 830 830 831 832 833 834 835 835 836 837 837 837 838 838 839 839 840 841 841 842 843 843 844 844 845 845 846 846 847 848 848 848 849 849 849 849 849 849 849 849 849 849 849 849 850 850 850 851 851 852
802 802 803 803 804 805 805 807 808 809 811 811 812 813 814 814 815 816 817 818 819 821 823 822 823 823 824 825 826 826 827 827 827 828 829 830 830 831 832 833 834 835 836 836 837 837 837 838 838 839 840 840 841 841 842 843 844 844 845 845 845 846 846 847 848 849 849 849 849 850 849 849 850 850 850 850 850 849 849 850 850 851 851 852 852
802 803 803 804 804 805 806 807 808 809 810 811 812 813 814 815 815 817 817 818 819 821 822 822 822 823 824 825 826 826 827 827 827 828 829 830 831 832 832 833 834 835 836 837 837 837 838 838 838 839 840 840 841 841 842 843 843 844 845 845 846 846 846 847 848 849 849 849 850 850 850 850 850 850 850 850 850 850 850 850 851 851 852 853 853
802 803 804 804 805 806 807 808 808 809 810 811 813 813 814 815 816 817 818 818 819 820 821 821 822 823 824 825 825 826 827 827 828 828 829 830 831 832 832 833 834 835 835 836 837 837 838 838 838 839 840 841 841 841 842 842 843 844 845 845 846 846 846 847 848 848 849 849 850 850 850 850 851 851 851 851 851 850 850 851 851 852 852 853 854
802 803 804 805 805 806 807 808 809 809 810 811 812 813 814 815 816 817 818 818 819 820 820 821 822 823 824 824 825 826 826 827 827 829 829 830 831 832 833 833 834 835 835 836 837 838 838 838 838 839 840 841 841 841 842 843 843 844 845 845 846 846 846 847 848 848 849 849 850 850 850 850 851 851 851 851 851 851 851 851 851 852 852 853 854
802 803 804 805 806 807 808 809 809 810 810 811 812 813 814 815 816 817 817 818 819 820 821 821 822 823 823 824 825 826 826 827 827 828 829 830 831 832 833 833 834 835 835 836 837 838 838 839 839 839 839 841 841 841 842 842 844 844 845 845 846 846 846 847 848 848 849 849 850 850 850 851 851 852 852 852 851 851 851 852 852 852 852 853 854
801 802 803 805 806 807 808 809 809 810 811 811 812 813 814 815 816 816 817 818 819 820 821 821 822 823 823 824 825 825 826 826 827 828 829 830 831 832 833 834 834 835 835 836 837 838 838 839 839 839 840 841 841 841 842 842 843 844 845 845 846 846 847 847 848 848 849 849 850 850 850 851 851 852 852 852 852 852 852 852 853 852 853 853 854
801 802 803 805 806 807 808 809 809 810 811 811 812 812 813 814 815 816 817 818 818 819 820 821 822 822 823 823 824 825 825 826 827 828 828 830 831 832 833 833 834 835 835 836 836 837 838 838 838 839 840 841 841 841 842 842 843 844 845 845 846 846 847 847 848 848 849 849 850 850 850 851 851 852 852 852 852 852 852 853 853 853 853 853 854
800 801 802 804 805 806 807 808 809 809 810 811 811 812 813 814 814 815 816 817 818 819 820 820 821 822 822 823 824 824 825 825 826 827 828 829 831 832 832 833 834 834 834 835 836 836 837 837 837 838 839 840 841 841 842 842 843 844 845 845 846 846 847 847 848 848 849 849 850 850 850 851 851 852 852 852 852 852 853 853 854 854 854 854 854
800 801 801 803 804 805 806 807 808 809 810 810 811 812 813 813 814 815 816 817 818 818 819 820 821 821 822 822 823 823 824 825 826 827 828 829 830 831 831 832 833 833 833 834 835 835 836 836 836 837 839 840 841 841 842 843 843 844 844 845 846 846 846 847 848 848 849 849 850 850 850 851 851 852 852 853 853 853 853 854 854 854 854 854 855
799 799 800 802 803 805 806 807 808 809 809 810 811 812 812 813 814 815 816 817 817 818 819 820 820 821 821 821 822 823 823 824 825 827 827 828 829 830 831 831 832 832 832 833 833 834 835 835 835 837 838 840 841 841 841 842 843 843 844 845 845 846 846 847 847 848 849 849 850 850 850 851 851 852 852 853 853 854 854 854 855 855 855 855 855
798 799 800 801 803 804 805 806 807 809 809 810 811 812 812 813 814 814 815 816 817 818 818 819 820 820 821 821 822 822 823 824 825 827 828 829 829 829 830 831 831 832 832 832 833 834 834 834 835 836 837 839 840 841 841 842 843 843 844 845 845 846 846 846 847 848 848 849 849 850 850 851 851 851 852 853 853 854 854 855 855 856 856 856 856
797 798 799 801 802 804 805 806 807 808 809 810 811 811 812 813 813 814 815 815 816 817 818 818 819 819 820 821 821 822 822 824 825 826 827 828 828 828 830 830 831 831 831 831 832 833 834 834 835 836 837 839 840 840 841 842 843 843 843 844 845 846 846 846 847 847 848 849 849 850 850 850 851 851 852 852 853 854 854 855 855 856 856 856 856
796 797 799 801 802 804 805 806 807 808 809 810 811 811 812 813 813 814 814 815 816 816 817 818 818 819 820 821 821 822 822 823 825 826 827 827 826 826 829 830 829 829 830 831 832 833 834 834 835 836 837 838 839 840 841 841 842 843 843 843 844 845 846 846 847 847 847 848 849 849 850 850 850 851 851 852 852 853 854 855 855 856 856 857 857
796 797 799 801 802 804 805 806 807 808 809 810 811 812 812 813 813 813 814 814 815 816 817 817 817 818 819 820 821 821 822 823 824 825 826 827 825 824 826 827 827 828 830 830 831 832 833 834 834 835 837 838 839 839 840 841 841 841 842 842 843 844 845 846 846 846 847 848 848 849 849 850 850 850 851 851 852 852 853 854 855 856 856 856 856
796 797 799 800 802 803 805 806 807 808 809 810 811 812 812 813 813 813 814 814 815 816 816 817 817 818 819 819 820 821 822 822 823 823 825 826 824 822 823 824 826 828 828 829 830 831 832 833 834 835 836 837 838 839 839 840 840 840 841 841 842 843 843 844 845 845 846 847 847 848 848 849 849 850 850 850 851 851 852 853 854 855 856 856 856
795 796 798 800 801 803 804 805 807 808 809 810 811 812 812 813 813 814 814 815 815 816 816 817 817 818 819 819 819 820 821 822 823 823 824 825 823 822 823 825 826 827 827 828 830 831 833 833 834 834 835 836 837 837 838 838 839 839 839 840 840 841 842 843 844 844 845 845 846 847 847 848 849 849 850 850 850 850 851 852 853 854 855 855 855
795 796 798 800 801 803 804 805 806 807 809 810 811 812 812 813 814 814 815 815 816 816 817 817 818 818 819 819 820 820 821 822 823 823 823 824 824 823 823 823 825 826 827 828 831 833 833 833 833 834 835 835 836 836 836 837 838 838 839 839 839 840 840 841 842 843 844 844 845 845 846 847 847 848 848 849 850 850 850 851 852 853 853 854 854
794 796 798 800 802 803 805 806 807 807 809 810 811 812 813 813 814 815 815 816 816 817 817 818 818 818 818 818 819 820 820 821 822 822 823 823 824 823 822 823 824 825 827 829 831 832 832 832 832 833 834 834 835 835 835 836 837 837 837 838 838 838 839 840 840 841 842 843 844 844 845 845 846 847 847 848 848 849 849 850 850 851 852 853 853
795 797 798 800 801 803 805 806 807 808 809 810 811 812 813 813 814 815 815 816 816 817 817 818 818 818 818 819 819 820 820 821 822 822 822 823 823 823 822 823 824 824 826 828 829 830 830 830 831 833 833 834 834 835 835 835 836 836 836 837 837 837 838 838 839 840 840 841 842 843 843 844 845 845 846 846 847 848 848 848 849 850 851 851 852
795 797 799 800 802 803 805 806 807 808 809 809 811 812 813 814 814 815 816 816 817 817 817 818 818 818 818 819 819 820 821 821 821 821 822 822 822 822 822 823 824 824 825 827 827 828 828 829 831 832 833 834 834 834 835 835 835 836 835 836 836 836 836 837 837 838 839 840 841 841 842 843 843 844 844 845 845 846 847 847 848 848 849 850 850
795 797 798 800 801 803 804 806 807 808 809 810 811 812 813 814 814 815 816 816 817 817 818 818 818 819 819 819 819 820 820 820 820 820 821 821 822 822 822 822 823 823 824 826 826 827 828 829 830 831 832 833 833 834 834 835 835 835 835 835 835 834 834 835 836 836 837 838 839 839 840 841 842 842 843 843 844 845 845 846 846 847 847 848 849
795 796 798 799 801 802 803 805 807 809 810 810 811 812 813 814 815 816 816 817 817 818 818 818 819 819 819 819 819 819 820 820 820 820 820 821 821 821 822 822 822 823 824 825 826 826 827 828 828 829 830 831 832 833 834 834 834 834 834 834 833 833 833 833 834 835 835 836 836 837 838 839 840 840 841 842 842 843 844 844 845 845 846 846 847
794 795 797 798 800 802 803 805 807 809 810 811 812 812 813 814 815 816 816 817 818 818 819 819 819 819 819 820 819 819 819 819 820 820 820 821 821 821 821 821 822 823 824 824 825 825 825 825 826 827 828 829 831 832 833 833 833 833 833 832 831 830 831 831 832 832 833 834 834 835 836 837 837 838 839 840 840 841 842 842 843 843 844 844 845
793 794 796 798 800 801 803 805 806 808 810 811 812 812 813 814 815 816 816 817 818 818 819 819 819 820 820 820 820 820 819 819 820 820 821 821 821 821 821 821 822 823 823 824 824 824 824 824 825 826 827 828 830 831 831 831 832 832 832 832 831 831 830 830 830 831 831 831 832 833 834 834 835 836 837 837 838 839 840 840 841 841 842 843 843
792 793 795 797 798 800 802 804 805 807 809 811 812 812 813 814 815 816 817 817 818 818 819 819 820 820 820 820 820 820 820 820 820 821 821 821 821 822 822 822 822 822 823 823 824 825 824 824 825 826 827 828 829 829 829 829 830 831 831 832 832 832 832 830 830 829 829 829 830 831 832 832 833 834 834 835 836 837 837 838 839 839 840 840 841
789 790 792 794 796 799 800 802 804 806 808 810 811 812 813 814 815 816 817 818 818 819 819 819 820 820 820 821 821 821 821 821 821 821 821 822 822 822 823 823 823 823 823 824 825 825 825 825 825 826 827 827 828 829 829 829 830 830 830 830 831 833 832 831 830 829 827 828 828 829 830 831 832 832 832 833 834 834 835 836 837 837 838 838 839
785 787 790 792 795 797 799 801 803 805 807 808 810 811 812 813 814 816 817 818 819 819 819 819 820 820 821 821 821 821 821 822 822 822 822 822 822 823 823 824 824 824 825 825 825 826 826 826 826 827 827 827 828 828 828 829 830 829 829 829 831 831 831 830 831 829 827 827 827 828 829 830 830 830 831 831 832 832 833 834 834 835 835 836 836
782 785 788 791 794 796 798 800 802 804 806 807 808 810 811 812 814 815 816 817 818 819 819 820 820 820 821 821 822 822 822 822 822 823 823 823 823 823 824 824 825 825 826 826 826 827 827 827 827 827 828 828 828 828 829 829 829 829 829 829 829 830 830 830 830 829 828 827 827 828 829 829 829 829 830 830 830 831 831 832 832 833 833 833 834
779 783 786 788 792 794 797 799 802 804 805 806 807 808 810 811 813 815 816 817 818 819 819 820 820 820 821 821 822 822 823 823 823 823 823 824 824 824 825 825 825 826 827 827 827 828 828 828 828 828 828 829 829 829 830 830 830 830 830 829 829 830 830 830 830 829 829 828 827 827 827 828 828 828 828 829 829 829 829 830 830 831 831 831 831
778 780 783 786 790 793 795 798 800 802 804 805 806 807 808 810 812 814 815 817 818 818 819 820 820 820 821 821 822 823 823 823 824 824 824 824 825 825 825 826 826 826 827 827 828 828 828 829 829 829 829 829 830 830 830 831 831 831 831 830 830 830 829 829 829 829 828 829 828 827 826 827 827 827 827 827 827 828 828 828 828 829 829 829 829
777 779 782 785 789 791 793 795 798 800 802 804 805 806 807 809 811 812 814 816 817 818 819 819 820 820 821 821 822 822 823 824 824 824 824 825 825 826 826 826 827 827 827 828 828 828 828 829 829 829 830 830 830 830 831 831 832 832 832 832 831 831 830 829 830 829 828 828 828 827 827 826 826 826 826 826 826 826 826 826 826 827 827 827 827
776 779 782 784 787 788 791 793 796 798 800 802 804 805 806 807 809 811 813 815 816 817 818 819 820 820 821 821 822 822 823 824 824 825 825 825 826 826 826 827 827 827 828 828 828 829 829 829 829 830 830 830 831 831 831 832 832 832 832 833 833 833 832 832 831 831 830 829 828 827 826 826 825 825 825 825 824 824 824 824 824 825 825 825 825
Wind_Speed
13 14 16 18 19 20 20 21 21 21 22 22 22 22 23 23 23 23 22 20 20 20 20 20 19 19 19 19 17 16 15 15 16 16 16 16 16 18 18 18 18 18 17 16 16 15 15 14 14 13 12 11 10 11 12 12 15 16 17 16 16 15 16 17 16 17 17 17 18 18 17 17 16 16 16 16 16 15 16 17 15 15 15 15 16
17 15 17 19 20 20 21 21 21 21 21 22 22 22 23 23 24 23 22 21 20 19 20 20 20 20 19 18 17 17 17 16 16 16 16 15 16 16 16 16 16 16 16 15 15 14 14 14 14 13 12 11 11 11 11 13 15 16 16 16 15 15 16 17 16 16 16 16 16 16 16 16 16 16 15 16 16 15 15 16 15 14 15 15 15
18 16 17 19 20 20 21 21 21 21 21 22 22 22 23 23 23 22 22 21 21 20 20 20 20 20 19 19 18 19 18 17 17 16 16 15 14 14 14 14 14 14 14 14 13 13 13 13 13 13 12 12 12 11 11 12 14 15 16 16 15 15 16 16 15 15 15 15 15 16 16 15 15 15 15 15 15 15 15 15 15 15 15 15 15
18 16 17 19 20 19 20 20 21 21 21 22 22 22 23 23 22 22 22 21 21 21 21 20 20 20 19 19 19 19 18 18 18 16 15 15 14 14 14 13 13 13 12 13 13 13 12 13 13 13 13 13 12 12 11 12 14 15 15 14 14 14 15 14 14 14 14 14 15 15 14 14 15 14 14 14 14 15 15 14 15 15 14 15 15
18 16 16 18 19 20 19 20 21 21 21 22 22 22 23 23 22 21 22 21 21 21 21 21 20 20 20 19 18 18 18 18 18 17 16 15 14 14 14 13 13 12 12 12 12 13 12 12 13 13 13 13 13 13 12 12 14 14 14 14 14 14 14 13 13 13 13 14 14 12 12 13 14 14 13 13 13 14 15 14 15 14 14 15 15
18 14 16 17 18 19 19 19 20 21 21 21 22 22 23 22 21 21 21 21 21 21 21 21 20 20 19 18 17 17 17 17 17 16 16 16 15 14 13 13 13 12 12 12 13 13 12 13 13 13 13 13 14 13 12 12 13 13 13 14 14 15 14 13 13 12 12 14 13 11 11 12 13 13 12 13 13 13 13 13 14 14 14 14 14
18 14 15 16 16 18 18 18 19 20 20 21 21 21 22 21 21 21 21 21 21 20 20 20 20 19 18 18 17 17 17 17 16 15 15 15 15 14 13 12 12 11 12 13 14 14 13 13 13 13 13 14 14 13 12 12 12 11 12 13 13 13 13 13 12 11 13 12 10 10 11 11 12 12 11 12 12 12 12 12 13 14 14 14 14
18 14 13 14 15 16 17 18 18 19 19 20 20 21 21 20 20 20 21 21 21 20 20 19 19 18 18 17 17 17 17 16 15 15 15 14 14 14 13 12 12 11 12 14 14 15 14 14 13 13 13 13 13 13 12 12 12 12 12 12 12 12 12 12 11 11 12 11 9 10 10 10 12 12 11 11 11 11 12 12 12 13 14 13 14
16 12 12 12 13 15 16 16 17 18 18 18 19 20 20 20 20 20 20 20 20 20 19 19 18 18 17 16 16 16 15 15 14 14 14 14 13 13 13 13 12 12 12 14 15 15 15 14 14 14 14 13 13 13 13 12 12 12 12 12 12 13 13 11 10 11 10 9 10 9 9 10 11 12 11 10 10 11 11 11 11 12 13 13 14
13 11 11 11 12 15 14 14 15 17 17 17 17 19 20 20 20 19 19 19 19 19 19 18 17 16 16 15 14 13 13 13 13 12 13 13 12 12 12 12 13 13 13 14 15 15 15 15 14 14 14 13 13 13 13 12 12 12 12 11 12 13 12 11 10 10 9 9 9 9 10 11 10 11 10 9 10 10 11 11 11 12 13 13 14
12 10 11 10 12 15 15 13 14 17 18 17 16 16 18 19 20 19 19 18 17 17 17 17 16 16 15 14 13 12 12 12 12 12 12 12 12 11 11 12 13 13 13 14 14 15 15 15 15 14 14 13 13 14 13 12 12 12 11 10 10 11 11 11 10 9 9 8 8 9 10 11 10 9 9 9 10 10 10 11 12 12 12 13 14
12 10 10 10 13 15 15 13 13 16 18 18 18 16 17 18 19 19 19 18 16 16 16 16 15 15 14 14 13 12 11 11 11 12 12 12 12 10 11 13 14 13 13 14 14 15 16 15 15 15 15 14 14 14 13 13 12 12 10 9 9 9 10 11 10 8 8 8 8 9 9 9 9 8 8 10 10 10 9 10 12 12 12 12 13
13 11 9 10 13 14 13 13 12 14 16 18 18 18 18 18 18 18 19 18 17 16 15 16 15 14 13 13 12 11 10 10 11 11 11 12 12 10 12 13 13 13 13 14 15 15 16 15 15 15 15 15 14 13 13 12 11 9 8 7 7 8 9 10 9 8 8 8 8 9 8 8 9 8 8 10 10 10 9 9 11 11 12 12 12
13 11 10 10 12 13 13 14 12 11 14 16 18 18 18 19 18 18 18 18 17 16 15 15 14 13 12 12 11 11 10 9 9 10 10 11 12 11 12 14 13 12 13 14 15 15 15 15 15 15 15 15 14 12 10 8 7 5 4 4 6 8 9 9 8 7 7 8 8 8 7 8 7 7 9 9 9 8 8 9 10 11 11 11 12
14 12 11 11 11 11 11 12 12 10 11 14 17 17 17 17 17 17 17 17 16 15 14 14 13 13 12 11 11 11 10 9 8 8 9 10 11 11 12 14 13 13 12 12 14 15 15 15 14 15 15 14 12 10 8 5 4 3 3 3 5 8 9 8 7 7 7 7 7 7 7 7 6 8 10 9 8 8 8 9 10 10 10 10 11
13 13 12 12 12 11 11 11 11 10 10 12 14 16 16 16 17 17 17 17 16 15 14 13 13 12 12 11 11 10 10 10 9 8 10 11 11 10 11 13 14 13 12 12 13 14 15 14 14 15 15 13 11 9 7 5 3 1 2 3 5 7 8 7 6 6 7 7 7 7 7 6 7 9 9 8 7 6 7 8 9 9 9 10 11
12 12 12 12 12 11 11 11 11 10 10 11 13 14 15 16 16 16 17 16 15 14 13 13 12 12 11 11 11 11 10 10 9 10 11 11 11 10 10 12 14 13 13 13 12 13 14 14 15 15 14 13 11 9 8 7 4 1 1 3 4 6 7 6 5 5 6 7 7 6 6 6 8 8 8 7 6 6 6 7 8 8 9 10 10
12 12 12 12 12 11 11 11 11 10 10 10 11 12 13 14 15 15 16 15 14 13 13 13 12 11 11 11 11 10 10 9 9 10 10 11 11 11 10 11 13 13 13 12 12 12 13 13 14 15 14 13 12 10 9 7 4 2 0 2 3 4 6 5 4 4 5 6 6 6 6 7 8 8 8 6 5 7 7 7 8 8 9 9 10
11 11 11 11 13 12 11 11 10 9 10 10 10 10 10 12 13 14 15 15 15 14 14 13 12 11 10 10 10 10 10 9 9 9 10 10 10 10 10 11 12 13 13 12 11 12 12 12 13 14 13 13 12 10 9 8 5 3 1 0 1 3 4 5 4 4 5 5 5 5 6 8 8 7 7 5 4 7 7 7 7 7 9 9 9
10 9 11 13 13 13 12 11 10 8 9 10 10 9 9 9 9 11 13 14 15 15 15 14 12 10 10 10 10 10 10 10 9 8 9 9 8 9 9 10 11 11 12 12 11 11 11 12 11 12 12 12 11 10 9 8 6 5 3 2 1 2 4 5 5 4 4 5 5 5 7 8 8 6 5 5 6 7 6 6 7 7 8 9 8
9 8 12 15 14 13 12 11 11 9 9 10 10 9 8 8 7 9 11 13 15 15 15 13 11 10 10 10 10 10 10 10 10 9 9 8 8 8 8 10 10 10 10 10 11 10 10 11 11 10 10 11 11 10 10 9 8 6 5 3 3 3 4 5 5 4 4 4 5 5 6 7 7 6 5 6 7 5 4 5 7 6 7 8 8
9 8 12 15 13 12 10 10 10 9 9 9 10 9 9 8 8 9 10 11 13 14 14 12 11 10 11 11 10 9 9 10 10 9 9 9 8 8 8 9 10 9 8 8 9 10 9 10 11 11 10 10 10 10 10 9 9 8 6 5 4 4 5 6 5 4 5 4 5 5 6 7 6 5 5 6 6 4 4 5 5 5 6 7 7
10 9 13 14 12 11 9 9 9 9 8 8 9 9 8 8 8 9 9 10 12 13 13 11 11 11 12 11 9 9 8 8 8 9 9 9 8 9 9 9 9 9 8 7 8 10 9 8 9 11 11 9 9 9 9 8 9 8 6 5 5 5 5 7 7 5 5 4 5 5 6 7 6 4 4 5 4 3 5 4 3 3 5 7 6
10 9 13 14 11 10 8 9 9 8 8 7 7 7 8 8 8 8 8 9 10 12 12 11 11 11 11 10 9 8 8 7 8 8 9 9 9 9 9 8 9 8 7 7 7 9 10 9 8 9 10 10 9 8 8 7 8 8 7 6 6 6 6 8 8 7 6 4 4 4 6 7 6 4 3 4 2 2 5 5 3 2 3 6 6
10 10 13 14 11 9 8 9 10 9 9 8 7 7 7 7 7 7 8 8 8 9 11 11 11 11 11 10 9 8 7 7 8 9 10 10 10 9 9 9 9 8 8 7 7 9 10 10 8 8 9 10 9 8 8 8 7 8 7 6 6 6 6 9 8 7 6 5 4 4 5 6 6 4 2 3 1 1 4 5 3 2 2 3 5
10 10 13 14 13 10 9 9 10 9 9 9 9 7 7 6 6 6 7 7 7 7 9 10 11 12 12 10 9 9 8 7 7 9 10 10 10 10 10 10 9 9 8 7 8 8 9 10 9 8 9 10 9 8 8 7 7 7 7 7 7 7 8 10 8 7 6 5 4 3 4 5 6 4 3 4 2 1 3 5 4 3 1 1 3
10 10 13 14 14 12 10 10 9 9 9 9 9 8 8 6 5 6 6 6 6 6 8 9 9 11 12 11 10 9 9 8 8 8 9 9 10 11 11 11 10 9 8 8 8 8 9 10 11 10 9 9 9 8 6 6 6 6 7 7 7 8 9 10 8 7 6 6 5 4 3 4 5 5 4 4 3 1 2 3 3 2 1 0 3
11 12 14 15 15 14 12 11 10 10 9 8 8 8 8 6 5 5 5 5 5 6 7 7 7 8 10 12 12 11 9 9 9 8 8 9 10 12 12 12 11 9 8 8 8 8 10 10 11 10 8 7 8 7 5 5 5 5 6 7 7 7 9 10 9 8 7 6 6 5 4 4 4 5 4 4 3 2 2 2 2 1 2 1 2
14 17 17 17 17 16 15 13 12 11 9 8 7 7 6 5 5 5 5 5 6 6 6 7 6 7 9 11 12 12 11 10 10 9 8 8 9 12 13 13 11 10 8 7 8 8 9 10 11 11 8 6 6 7 6 5 4 3 4 6 7 7 8 9 9 8 7 7 7 6 5 4 4 4 4 4 4 3 2 1 2 2 1 1 1
18 20 19 19 18 17 16 14 13 11 10 9 7 6 5 4 5 4 5 5 5 6 6 7 7 7 7 8 10 12 11 10 9 9 9 8 8 10 13 13 11 9 8 8 8 8 9 10 11 11 9 7 7 7 6 5 3 2 3 4 6 7 7 8 8 8 8 8 8 8 7 6 5 4 4 5 4 3 3 2 2 2 1 0 1
21 21 21 20 19 17 16 14 13 11 9 8 6 6 5 4 4 4 4 4 5 6 7 7 7 7 6 6 8 9 10 10 10 9 9 8 8 10 12 12 11 10 10 10 8 7 8 9 10 11 10 9 8 7 6 5 3 2 3 4 6 7 8 8 8 8 8 8 9 9 9 8 7 5 5 5 5 4 4 3 2 2 1 2 1
23 23 22 20 19 18 17 15 13 11 9 8 7 5 4 4 4 4 4 4 4 5 7 8 8 7 6 6 7 7 8 9 9 8 6 6 7 10 12 13 14 13 13 11 8 7 8 9 10 10 9 9 8 7 6 4 3 3 3 4 6 8 9 10 10 9 9 9 10 10 10 10 9 8 6 6 6 5 5 4 3 3 3 2 2
25 24 22 20 19 18 17 15 13 12 10 9 7 5 4 4 4 5 5 4 3 3 5 7 8 8 7 7 7 6 6 6 8 8 4 3 6 7 12 17 18 15 12 11 10 10 10 10 10 10 9 9 8 7 6 5 4 4 4 4 6 8 9 10 11 11 11 10 11 11 11 11 11 10 8 7 7 6 6 5 5 4 4 3 2
26 24 22 21 19 18 17 15 13 12 10 9 8 6 5 4 4 3 3 2 2 2 2 4 6 8 8 9 7 5 5 5 6 8 5 4 5 6 10 14 16 16 14 12 12 11 11 11 11 10 10 9 8 7 6 5 5 4 5 5 6 8 10 10 11 12 12 11 11 11 11 12 12 11 10 9 9 8 8 7 7 6 5 4 3
26 25 24 21 19 18 17 15 13 12 11 10 9 8 6 4 4 4 4 3 3 2 2 1 2 5 6 7 7 3 4 3 3 4 3 5 6 7 7 8 12 16 17 14 12 11 10 11 12 12 11 10 9 8 8 7 6 5 5 6 7 8 10 10 12 13 13 12 10 10 11 12 12 12 11 10 10 10 9 9 8 7 7 6 5
27 26 24 22 20 18 17 15 14 13 13 12 10 9 7 5 5 5 6 5 5 5 4 3 2 1 0 1 2 1 0 1 1 0 2 5 6 5 6 7 9 14 16 14 12 11 10 11 12 12 11 11 10 8 7 7 8 7 7 7 7 7 9 10 12 13 13 13 11 10 11 11 12 12 12 11 11 11 11 10 10 9 8 8 8
27 26 24 23 21 19 17 15 15 15 14 13 12 10 7 6 6 6 6 6 6 7 6 5 4 3 3 3 3 2 1 1 0 1 3 5 5 5 7 7 6 8 11 12 12 13 14 13 13 12 11 11 10 8 7 7 8 8 8 8 8 8 9 11 12 13 14 14 13 12 11 11 12 12 12 12 12 12 12 11 11 11 10 10 10
27 26 24 23 21 19 17 16 16 16 15 14 12 10 8 6 6 7 6 7 7 8 7 6 6 5 5 5 5 4 3 3 2 1 2 3 3 4 6 5 4 4 5 8 11 14 17 16 14 13 12 11 10 9 7 7 7 8 9 9 9 10 11 12 13 14 16 16 15 15 14 13 13 12 12 12 12 12 12 12 12 12 13 12 12
26 25 23 22 21 19 18 18 18 18 17 15 12 10 8 7 7 7 7 7 7 8 7 6 6 6 6 6 6 6 5 5 4 4 3 2 1 1 2 3 4 4 4 6 9 11 14 15 14 13 12 10 10 8 7 7 8 8 9 10 10 10 11 13 14 15 17 18 18 18 18 16 16 14 13 13 13 12 12 12 12 13 13 13 13
25 24 23 22 21 20 20 20 20 19 17 15 13 11 10 10 10 9 8 8 8 8 7 6 5 5 5 5 5 5 5 4 4 5 5 5 4 2 2 2 2 4 4 4 6 7 9 10 10 11 12 11 10 9 6 7 7 8 8 10 11 11 11 12 13 15 17 19 20 21 21 20 19 18 16 15 14 14 13 13 13 13 13 13 13
23 24 23 23 22 22 21 22 21 20 18 16 15 13 13 13 12 11 10 10 9 8 7 5 4 4 4 4 4 4 3 3 4 4 5 7 6 4 4 3 2 1 2 2 4 5 7 8 7 8 11 10 10 8 6 6 5 6 6 7 10 11 11 11 12 13 15 17 19 21 22 22 22 20 19 17 16 14 14 13 13 13 13 13 13
25 25 25 24 23 22 22 23 22 21 19 16 14 13 13 13 12 12 11 11 10 8 7 5 4 5 5 5 5 4 4 3 4 4 5 8 9 8 6 5 4 4 3 4 4 1 3 6 6 7 8 8 8 7 6 5 3 3 3 3 6 8 10 12 13 14 15 16 18 20 21 23 22 21 20 19 17 16 15 15 14 13 13 13 13
26 26 25 25 24 23 23 24 23 22 19 16 13 13 12 11 10 10 11 11 10 8 7 6 6 6 6 6 5 5 5 6 7 6 7 9 10 11 11 9 7 6 6 7 8 5 2 2 3 5 7 7 6 5 4 4 4 3 2 1 1 2 5 7 9 13 15 16 17 18 19 21 21 21 21 20 19 18 17 16 15 14 14 13 14
26 27 26 26 26 25 24 25 25 23 20 17 14 13 12 11 9 9 10 9 9 8 7 7 7 7 6 6 6 6 8 8 8 8 8 8 9 11 13 12 11 10 10 10 9 7 5 3 3 4 5 5 4 3 2 3 4 4 2 1 0 0 2 2 3 7 8 10 14 15 16 17 16 17 19 20 19 19 18 18 18 17 16 15 15
27 29 30 29 28 27 26 27 26 24 21 19 17 15 15 13 11 11 9 8 9 9 8 7 6 6 6 6 7 8 9 8 8 8 8 8 8 9 11 13 13 12 13 13 12 10 8 6 4 4 3 3 3 3 3 2 3 5 3 2 1 1 2 1 2 3 2 2 5 7 10 11 10 12 14 15 15 16 17 17 19 19 19 18 17
30 32 32 31 30 28 27 28 27 25 23 21 19 18 17 16 14 14 12 10 9 9 8 7 7 6 6 6 7 8 7 7 7 7 8 9 9 9 10 11 11 11 12 13 13 12 12 11 8 6 6 5 4 5 5 3 3 3 3 3 3 3 2 2 2 2 2 2 1 2 1 3 4 5 7 8 9 11 12 13 15 16 17 18 19
32 32 32 31 30 29 28 29 28 26 25 23 22 20 20 18 16 16 14 13 11 9 8 7 7 7 6 7 7 7 7 7 7 7 7 8 9 9 10 10 11 11 11 11 12 12 12 12 11 9 8 7 6 7 6 4 4 4 2 1 2 4 4 4 3 3 3 1 1 1 1 1 1 1 2 3 3 5 6 7 9 10 12 14 15
31 31 32 32 31 30 29 29 29 28 27 26 24 23 22 20 18 16 15 14 11 9 9 9 8 8 7 7 7 8 8 7 7 7 7 7 9 10 10 11 11 11 10 11 11 11 11 11 11 10 9 8 7 7 6 5 5 4 4 3 2 2 2 3 3 3 3 3 3 4 2 2 3 2 1 1 1 3 4 5 6 7 8 9 11
30 31 33 32 32 31 29 30 30 29 28 28 26 24 23 20 19 17 16 15 12 10 10 11 10 9 9 8 8 8 8 7 7 7 8 10 12 13 13 13 12 12 11 11 11 10 10 10 11 11 11 11 9 8 7 7 6 5 5 4 4 4 2 1 2 2 3 3 4 4 4 6 6 2 2 2 3 4 5 6 7 8 8 9 9
28 29 31 31 32 31 31 32 32 31 31 30 28 27 24 22 20 18 18 16 13 11 12 12 12 11 11 10 9 9 8 7 7 8 11 13 14 14 15 15 15 14 14 13 12 11 11 11 11 11 11 12 11 11 10 8 7 6 6 5 5 4 3 2 4 5 4 3 4 4 6 7 6 4 4 5 5 6 7 8 8 8 8 9 9
24 26 29 30 32 32 31 32 33 33 33 31 30 29 26 24 22 20 19 18 16 13 14 14 14 13 12 12 11 10 9 8 8 9 12 13 13 13 15 16 16 16 16 16 15 14 13 13 12 12 11 12 12 11 11 10 9 9 8 7 6 5 4 3 5 6 5 5 5 5 7 8 8 8 7 6 8 9 8 8 7 6 7 7 8
Wind_Direction
150 148 147 152 152 151 148 150 150 144 142 140 138 135 134 132 130 129 130 134 139 142 144 145 143 143 140 139 139 138 137 137 136 131 127 128 129 128 131 132 132 132 134 136 138 138 135 133 131 129 129 129 129 130 127 127 126 121 121 124 125 125 123 123 123 122 119 118 116 115 113 111 110 110 107 105 104 100 101 97 91 86 84 85 83
148 147 150 155 154 152 149 152 150 145 144 141 140 138 136 134 131 128 128 130 134 137 138 140 140 141 139 138 136 132 129 126 125 125 123 125 127 126 130 132 132 133 136 139 140 140 137 136 135 136 136 131 130 130 129 128 127 126 129 128 128 128 126 127 125 121 121 121 119 117 114 113 112 110 105 103 102 99 99 95 93 90 87 87 83
141 144 151 155 154 154 151 152 150 146 145 144 143 141 138 136 133 127 126 128 132 135 137 139 140 140 138 135 132 130 128 127 126 127 126 126 126 125 129 129 129 133 137 141 143 140 138 139 135 137 138 133 131 132 131 130 129 128 128 128 129 129 129 129 128 125 124 121 119 115 110 109 107 106 104 103 102 99 96 93 95 95 93 91 84
139 141 150 155 154 155 152 152 152 147 147 146 145 143 140 138 134 129 128 129 133 137 138 140 142 142 139 136 134 133 132 132 132 131 129 127 127 128 131 128 128 133 138 143 143 139 139 141 137 137 137 135 134 133 133 133 133 131 129 130 130 129 129 130 133 128 122 124 120 112 108 107 104 104 104 103 103 99 95 93 94 94 94 92 87
140 140 150 155 156 158 153 154 153 150 150 148 147 145 142 140 137 132 131 132 135 139 140 140 141 141 139 138 137 135 135 135 134 134 132 129 130 132 132 130 130 133 137 139 139 139 141 142 141 140 138 137 135 133 134 134 134 131 131 133 134 134 134 134 135 128 129 133 120 111 111 108 106 105 104 103 102 98 96 95 93 92 93 91 87
141 137 148 154 157 158 154 155 154 152 151 150 149 147 143 141 139 135 133 134 136 138 140 141 141 141 141 141 139 138 138 137 136 135 133 131 132 133 133 133 131 131 135 136 137 139 142 143 143 141 140 139 137 136 135 135 135 133 134 136 138 140 142 142 141 138 139 132 115 110 112 109 109 107 104 103 101 98 97 97 96 93 91 90 85
143 139 145 153 157 157 156 156 155 153 152 151 151 149 145 143 142 139 136 136 137 138 139 141 142 143 144 144 142 141 142 142 141 138 136 134 134 134 134 135 132 132 133 136 138 139 141 142 143 143 141 141 139 137 136 137 137 138 139 140 141 142 145 148 149 146 135 122 114 113 112 111 110 109 107 103 100 98 96 96 95 93 92 91 87
146 141 143 151 156 159 159 159 157 154 153 152 153 153 148 145 145 143 141 140 141 140 139 141 144 145 146 146 145 145 146 147 147 145 142 139 138 137 138 136 133 133 134 136 138 139 140 141 143 143 142 141 140 138 138 138 138 141 141 142 146 146 148 149 148 143 131 119 120 118 112 112 111 111 107 103 101 100 100 94 91 93 91 90 89
141 139 143 148 153 160 159 162 159 151 152 154 157 156 153 149 147 148 145 143 143 142 142 144 147 148 148 149 150 150 151 152 154 153 149 145 143 143 141 138 137 136 135 136 138 139 141 141 142 143 142 141 140 138 137 139 143 146 144 143 149 152 153 152 148 139 127 120 121 117 115 113 110 111 111 112 109 103 101 95 90 91 89 88 90
130 133 143 142 149 160 159 164 157 148 153 159 161 159 157 154 150 151 149 146 145 144 144 145 148 149 150 151 153 154 153 154 156 157 154 148 146 146 139 138 142 140 137 138 140 141 141 142 145 148 146 143 141 140 140 142 144 148 149 148 152 156 156 156 150 136 125 124 121 118 120 116 110 113 115 116 108 100 98 99 98 92 91 89 88
126 130 139 140 147 158 159 161 155 154 161 161 161 163 162 159 156 154 153 150 146 145 145 145 147 149 151 153 154 155 153 154 156 158 159 152 150 149 137 142 147 142 140 141 144 143 143 147 149 149 150 150 146 146 146 146 144 145 150 152 158 159 158 156 144 131 128 128 123 121 120 113 110 115 117 111 103 99 95 97 98 93 92 90 88
128 132 135 141 149 155 155 155 154 159 166 164 163 166 165 163 161 158 157 155 152 149 147 147 148 150 152 153 154 156 153 156 161 164 166 159 156 151 138 145 151 147 145 144 147 147 149 153 151 150 152 154 151 149 146 145 143 140 140 144 156 159 159 154 138 129 129 129 127 125 122 112 111 115 112 109 104 99 94 93 93 92 93 92 91
128 132 134 137 147 151 150 150 153 161 168 171 168 168 170 166 164 163 162 159 157 154 150 150 150 152 151 150 154 155 154 158 164 166 168 164 159 152 142 147 152 151 150 146 148 150 156 156 152 154 152 151 152 150 147 143 138 131 129 133 146 151 152 147 134 131 131 130 129 128 126 117 118 119 108 107 105 98 95 96 95 93 93 92 90
129 130 132 133 142 147 148 148 154 164 171 178 176 174 174 171 167 168 168 164 161 157 153 152 150 153 153 152 155 156 157 159 161 157 163 167 161 154 146 148 152 153 153 150 150 152 160 160 157 158 152 151 152 150 149 143 133 120 117 135 146 147 144 140 133 132 134 134 131 131 125 122 126 118 109 110 107 100 95 93 94 92 93 94 90
132 129 129 129 132 137 142 146 153 164 169 175 180 181 179 177 175 173 173 169 165 161 156 155 152 153 155 155 156 158 160 159 158 154 164 171 165 157 148 150 155 155 156 154 154 156 161 162 161 161 157 157 156 154 153 149 145 115 101 136 154 152 147 141 136 133 137 138 135 132 125 128 127 111 112 115 110 105 99 93 92 93 94 93 91
130 129 128 129 129 130 134 142 148 153 158 165 175 181 182 183 181 179 179 175 170 166 160 158 156 157 159 159 158 159 161 161 160 162 169 173 168 162 151 154 159 158 158 158 159 161 163 163 164 165 165 166 165 165 163 160 174 114 83 117 151 163 159 148 140 136 140 141 139 135 127 129 121 116 123 122 115 110 105 100 95 94 94 92 92
127 128 128 129 129 128 128 134 143 144 146 155 169 175 176 179 179 182 183 178 172 169 164 162 162 163 162 161 161 162 166 167 163 165 171 169 167 164 155 157 161 161 160 160 164 166 168 169 170 171 173 175 175 175 173 170 180 240 59 93 134 167 169 160 144 137 142 143 143 138 132 136 131 130 135 131 122 114 110 108 102 98 97 97 95
129 130 130 131 131 131 128 131 139 141 143 148 161 168 170 173 177 182 184 179 174 171 170 169 170 167 163 164 164 164 168 169 167 165 168 167 165 163 159 159 161 165 166 166 169 171 175 178 179 180 179 180 182 183 184 183 187 214 316 73 111 156 173 176 158 144 147 142 144 141 139 148 141 134 139 143 134 123 119 114 112 108 104 104 100
133 133 131 136 139 140 141 141 140 141 148 151 154 162 169 175 177 181 184 181 177 176 175 177 174 168 164 166 166 164 167 171 172 164 164 168 165 163 165 165 161 163 169 175 180 179 180 184 185 187 186 186 187 186 191 197 199 205 239 316 105 151 171 184 180 159 151 144 142 143 150 154 142 136 144 150 143 131 126 120 118 114 112 111 107
136 134 136 138 136 136 139 141 141 140 148 152 153 155 161 169 172 175 180 180 182 181 179 178 173 169 166 167 168 168 170 172 172 167 167 170 169 172 172 170 167 166 170 178 188 188 186 186 186 189 192 194 192 186 186 194 200 206 219 245 253 205 181 185 192 175 159 152 145 146 157 155 144 146 148 140 137 135 131 124 120 115 115 115 113
140 136 138 135 130 130 130 133 138 139 140 144 149 151 153 158 155 157 171 180 183 182 179 174 169 169 168 167 171 172 174 173 173 174 173 176 182 188 183 177 175 173 175 180 188 193 192 190 187 186 190 195 195 186 180 182 187 197 210 227 240 233 205 184 191 189 171 159 149 154 160 155 147 151 150 143 144 142 132 128 127 122 120 119 119
143 140 139 136 132 130 131 133 138 141 137 136 143 149 150 154 152 151 167 180 179 179 176 171 169 171 169 171 174 175 178 178 177 176 177 179 188 196 190 184 181 179 183 185 188 192 196 195 186 183 186 191 195 189 184 182 180 186 200 217 224 233 220 183 176 186 178 167 160 161 156 148 142 146 151 154 159 153 134 132 136 131 125 125 122
147 144 143 141 138 134 135 143 146 145 141 135 140 148 149 153 154 149 159 170 172 176 174 170 170 173 174 175 176 178 182 183 180 180 183 184 190 198 192 187 184 181 183 186 187 186 195 199 185 182 186 188 191 190 190 189 183 181 191 209 217 232 221 180 170 175 175 168 166 161 150 141 137 151 160 161 169 158 146 143 145 137 130 132 126
153 148 149 150 149 145 143 152 157 155 153 148 143 146 148 152 155 151 154 164 174 179 178 175 174 178 179 177 178 183 183 181 182 185 191 194 197 195 190 190 186 184 184 185 190 187 194 203 196 189 185 187 192 191 190 194 190 182 187 201 210 226 207 176 173 174 171 169 168 160 146 141 143 166 176 166 169 141 154 156 153 156 135 134 132
154 152 156 160 161 160 156 158 163 163 165 165 156 151 149 151 159 160 156 165 182 183 180 184 185 184 180 179 183 187 186 183 188 193 197 201 204 194 188 192 188 188 186 187 198 196 196 198 200 199 188 188 194 195 189 192 194 185 185 194 203 214 193 176 178 178 176 173 171 158 142 141 147 172 184 173 181 83 148 162 160 163 136 130 137
156 160 164 167 168 169 167 162 164 167 168 169 166 161 158 155 159 167 164 168 178 175 179 192 198 195 189 189 189 190 193 191 192 200 203 203 203 197 193 193 189 191 192 194 204 206 206 201 199 203 192 186 191 197 194 194 195 188 185 188 200 205 187 181 182 179 183 184 180 166 148 145 148 168 181 179 204 51 134 164 174 181 183 106 135
162 168 170 171 170 171 170 165 167 170 167 169 168 166 167 166 162 168 171 173 177 174 182 196 203 204 203 204 202 201 202 204 201 202 206 205 203 200 198 197 192 195 200 204 212 215 221 215 207 208 194 182 186 191 197 205 204 196 189 185 197 204 190 186 188 184 187 194 197 187 171 162 155 166 179 187 203 165 142 160 172 193 307 97 151
169 173 171 170 170 170 171 170 172 174 170 168 168 168 171 173 175 176 177 181 183 179 186 193 197 202 208 212 216 214 213 214 209 202 203 204 208 208 204 201 195 200 206 206 218 221 224 221 213 211 198 182 184 183 190 212 219 209 200 190 192 205 196 189 192 192 194 202 210 209 199 189 172 171 181 194 197 179 163 155 161 191 345 69 153
175 172 170 170 171 170 171 173 175 176 174 172 171 170 170 174 179 183 185 191 194 191 195 199 197 196 201 210 219 223 220 214 208 207 208 206 214 215 211 205 198 204 209 205 216 223 222 219 212 209 205 192 184 179 175 190 213 220 216 203 196 203 201 195 194 197 205 211 218 224 220 213 199 184 182 194 200 194 192 181 177 197 350 50 131
176 172 172 173 173 172 173 175 178 178 178 178 179 175 172 173 179 188 194 198 208 206 204 205 206 203 200 204 212 219 217 212 211 213 212 211 218 219 216 211 204 206 211 212 217 220 217 212 207 206 209 203 185 173 165 166 189 216 226 219 211 209 204 199 200 207 215 218 223 231 231 229 223 207 191 191 198 205 215 222 207 212 235 226 221
176 176 179 178 176 177 177 180 182 184 186 187 191 185 176 177 182 193 202 210 221 219 212 208 208 207 207 201 200 206 212 218 221 224 221 217 224 222 215 212 209 212 211 210 213 215 210 205 203 203 202 198 188 176 169 168 184 216 227 223 222 220 214 211 214 221 226 228 230 233 236 238 236 229 215 204 202 205 218 229 223 219 231 248 241
181 183 183 181 182 182 183 185 187 189 194 197 204 201 182 183 194 204 217 223 226 231 221 213 208 205 209 207 202 202 210 223 228 238 234 222 238 226 211 210 210 212 214 208 203 200 189 186 195 201 199 197 195 190 190 201 216 224 223 221 226 226 224 223 227 231 233 237 237 236 237 240 243 242 236 226 218 212 216 222 223 230 234 254 269
186 188 186 185 186 185 187 189 190 193 198 200 204 207 194 193 206 221 231 224 215 226 218 213 213 210 213 217 218 213 213 226 235 243 227 206 256 232 204 212 209 205 213 209 204 200 187 181 189 200 203 202 206 211 219 234 239 230 220 226 229 228 230 230 234 236 235 240 243 240 239 240 244 248 249 245 236 226 223 223 221 235 239 243 261
190 191 190 191 189 189 191 192 193 195 197 197 197 194 190 188 190 195 200 196 193 204 210 215 220 219 221 223 223 229 234 242 248 250 236 198 252 246 211 214 210 204 207 206 205 208 202 195 195 200 207 213 224 236 242 245 247 244 241 242 234 235 239 236 237 238 237 240 242 240 241 242 243 245 252 256 254 245 235 232 225 229 238 238 242
195 194 194 195 193 192 194 193 193 193 191 188 183 179 172 161 142 124 118 115 138 163 179 184 222 228 231 230 224 233 246 250 272 270 239 195 227 254 240 224 215 209 209 208 207 210 210 208 206 206 211 222 232 240 248 259 270 270 264 258 245 241 243 240 241 241 240 240 240 240 241 243 245 245 248 252 257 259 251 246 238 231 233 235 234
199 198 197 196 196 195 194 194 190 186 184 179 174 172 164 151 134 117 114 108 119 144 166 163 164 196 319 258 210 182 133 197 289 219 189 206 216 243 254 246 231 217 212 212 210 209 214 217 216 215 216 225 234 241 255 274 286 282 271 265 258 250 246 245 244 244 244 244 244 245 244 245 247 247 249 249 253 261 261 257 252 245 243 244 244
201 200 197 194 193 192 191 192 187 182 179 176 173 169 161 154 147 135 126 116 118 133 146 147 130 108 82 72 94 82 55 109 143 172 202 228 216 219 239 246 241 223 216 216 210 208 214 218 220 220 218 226 237 250 265 282 293 287 275 274 272 261 253 249 247 248 250 249 246 246 247 248 250 250 252 254 256 259 263 262 259 255 253 256 256
199 197 195 191 189 187 186 187 184 181 179 177 174 169 162 160 159 152 140 130 128 130 131 129 116 101 89 82 85 83 74 74 69 104 195 223 213 226 242 240 233 228 223 219 211 211 218 219 220 226 228 234 241 251 264 277 288 282 274 283 282 266 257 253 251 253 253 251 249 248 249 251 254 257 256 259 260 260 263 263 261 258 257 259 259
195 194 191 190 187 183 182 185 184 181 181 179 173 167 162 160 163 161 151 142 138 135 132 126 116 99 84 80 78 80 73 61 59 65 81 100 108 210 245 234 221 221 230 222 210 216 225 222 220 228 233 238 240 245 260 268 278 277 270 281 283 268 259 255 252 254 253 252 252 253 256 257 258 261 262 263 263 262 262 262 262 259 257 259 260
194 192 190 189 186 181 181 183 184 183 182 176 170 164 160 159 161 159 154 151 148 146 142 134 121 105 92 85 75 73 68 57 54 51 55 65 70 84 96 103 203 230 246 239 213 221 230 220 217 227 231 235 234 236 250 262 277 286 275 274 279 272 262 257 253 253 253 252 253 255 258 261 262 262 262 264 265 265 264 263 263 259 254 258 262
195 193 189 188 186 183 182 183 183 185 184 177 171 168 163 161 159 157 157 156 155 152 146 143 134 124 116 104 91 82 74 64 59 52 53 59 65 77 90 94 92 195 230 209 203 229 232 209 200 217 226 227 223 224 238 251 268 279 274 276 282 278 268 261 256 254 254 254 256 257 259 261 263 263 262 262 262 264 265 264 265 263 257 257 261
196 194 191 189 187 184 184 184 183 185 187 183 178 177 172 166 163 161 162 159 157 154 149 148 144 135 125 113 103 89 80 83 83 80 78 74 75 79 84 97 98 103 113 114 123 151 233 207 196 200 204 204 204 208 222 235 243 247 254 274 284 283 275 268 262 258 256 254 255 258 260 260 261 262 263 262 262 260 261 261 262 262 260 257 255
198 195 192 189 185 184 185 186 185 186 189 188 186 184 177 174 172 167 164 161 160 161 154 142 130 127 120 107 93 81 83 98 103 100 96 89 83 81 83 93 98 102 102 97 101 102 118 160 170 172 166 168 180 187 199 212 213 209 219 248 287 300 280 274 268 261 257 253 255 257 258 260 260 262 263 263 263 260 258 258 258 258 258 256 253
200 197 193 189 185 185 188 188 187 188 188 188 190 187 178 176 173 168 168 164 160 158 147 132 124 121 115 101 87 87 93 101 103 96 92 90 86 84 86 92 95 97 98 94 95 99 108 117 120 131 136 147 156 147 151 177 188 191 198 211 85 42 252 284 297 275 262 252 254 255 255 258 257 257 261 264 264 262 260 259 258 256 255 255 254
202 199 194 191 187 187 191 190 188 188 187 188 190 185 178 176 170 165 169 162 157 157 151 142 136 128 115 102 97 103 105 101 96 86 86 88 88 91 92 94 94 92 93 91 89 88 90 92 88 91 101 137 161 144 120 138 184 196 204 193 182 230 224 357 324 291 298 276 260 251 251 256 253 251 257 261 261 262 264 263 262 261 258 258 257
203 200 196 193 189 190 193 191 190 189 187 189 190 184 179 179 173 169 170 166 166 172 170 159 148 137 120 107 108 114 112 102 94 88 87 88 91 98 101 102 100 95 93 91 88 84 80 77 74 78 79 92 126 121 103 106 144 169 202 212 240 268 259 301 305 273 313 340 117 144 214 259 248 243 251 257 257 260 264 266 268 269 267 265 263
203 199 196 194 190 192 194 192 191 190 188 189 189 185 181 182 182 179 180 180 180 180 175 162 152 146 128 112 110 117 114 103 98 92 87 88 94 100 103 107 106 102 99 95 90 84 79 76 74 76 73 72 87 90 80 78 97 96 98 171 248 271 259 267 272 270 289 281 140 97 32 70 138 227 253 261 255 260 275 279 273 270 271 272 271
200 197 196 194 191 193 195 194 192 192 191 190 190 187 184 184 186 189 191 191 188 181 174 167 161 154 141 125 114 116 117 107 100 91 84 87 96 101 103 107 106 104 102 97 92 87 82 80 76 75 75 70 72 79 73 58 62 58 40 46 22 340 267 259 265 274 283 270 273 287 292 330 326 299 243 233 237 266 290 296 282 268 271 279 278
199 196 196 194 192 194 197 196 194 194 194 193 192 190 188 187 189 194 199 199 196 186 178 174 168 162 154 144 129 124 122 113 102 90 90 97 100 99 97 97 98 97 98 96 93 89 85 82 78 76 77 77 74 77 75 61 56 50 30 27 19 4 350 358 359 323 303 281 282 287 293 312 323 315 267 290 290 285 284 281 276 265 263 273 278
200 197 196 194 192 195 198 197 195 196 197 196 194 193 193 193 194 199 205 207 205 194 184 180 174 170 164 157 148 140 134 124 112 99 102 107 103 95 89 88 90 92 92 90 86 82 77 76 77 77 78 77 74 74 74 67 61 54 41 34 23 6 350 8 10 348 324 292 282 288 293 299 310 311 304 307 304 300 294 285 280 268 255 258 264
197 195 196 194 193 196 198 197 197 198 199 198 198 197 196 197 199 202 208 215 215 204 193 187 181 177 173 167 162 155 149 141 128 116 115 114 105 92 85 84 87 89 87 84 80 76 74 73 73 73 73 71 69 69 68 63 60 55 49 45 38 28 17 6 358 347 329 307 297 288 288 293 294 295 298 305 308 303 294 287 282 273 262 258 256